カタログに戻る

BEIDOU 3M13

運用中ナビゲーションMEO
NORAD 43622·PAYLOAD·🇨🇳 China

打ち上げ Sep 19, 2018 から Xichang Satellite Launch Center

Loading…

次のパス (今後24時間)

TLE

最新Source: CelesTrak SupGP

元期: Sep 12, 2026, 00:00 UTC

1 43622C 18072A   26255.00000000  .00000000  00000+0  00000+0 0  2558
2 43622  56.7048  59.7992 0004047 324.5690  45.0572  1.86231198    17

AllMySatでBEIDOU 3M13をリアルタイム追跡

Download on the App Store